| time (UTC) | temp C | wind direction | speed KPH | gust KPH | rain 1hr cm | rain 24hr cm | rain mn cm | humidity % | barometer mb |
| 20260902054635 | 20 | 156 | 0.0 | 0.0 | 0.00 | 0.00 | 0.00 | 99 | 1016.9 |
| 20260902054131 | 20 | 322 | 0.0 | 0.0 | 0.00 | 0.00 | 0.00 | 99 | 1016.7 |
| 20260902053626 | 20 | 15 | 0.0 | 1.6 | 0.00 | 0.00 | 0.00 | 99 | 1016.8 |
| 20260902053121 | 20 | 193 | 0.0 | 3.2 | 0.00 | 0.00 | 0.00 | 99 | 1016.8 |
| 20260902052621 | 21 | 352 | 0.0 | 0.0 | 0.00 | 0.00 | 0.00 | 99 | 1016.6 |
| 20260902052117 | 21 | 352 | 0.0 | 0.0 | 0.00 | 0.00 | 0.00 | 99 | 1016.7 |
| 20260902051616 | 21 | 50 | 0.0 | 0.0 | 0.00 | 0.00 | 0.00 | 99 | 1016.6 |
| 20260902051115 | 21 | 0 | 0.0 | 3.2 | 0.00 | 0.00 | 0.00 | 99 | 1016.8 |
| 20260902050609 | 21 | 265 | 1.6 | 1.6 | 0.00 | 0.00 | 0.00 | 99 | 1016.6 |
| 20260902050105 | 21 | 50 | 0.0 | 0.0 | 0.00 | 0.00 | 0.00 | 99 | 1016.7 |
| 20260902045600 | 21 | 50 | 0.0 | 0.0 | 0.00 | 0.00 | 0.00 | 99 | 1016.7 |
| 20260902045056 | 21 | 142 | 0.0 | 0.0 | 0.00 | 0.00 | 0.00 | 99 | 1016.5 |
| 20260902044551 | 21 | 50 | 0.0 | 0.0 | 0.00 | 0.00 | 0.00 | 99 | 1016.7 |
| 20260902044046 | 21 | 66 | 0.0 | 1.6 | 0.00 | 0.00 | 0.00 | 99 | 1016.3 |
| 20260902043542 | 21 | 24 | 0.0 | 1.6 | 0.00 | 0.00 | 0.00 | 99 | 1016.5 |
| 20260902043036 | 21 | 309 | 0.0 | 3.2 | 0.00 | 0.00 | 0.00 | 99 | 1016.3 |
| 20260902042536 | 20 | 259 | 3.2 | 3.2 | 0.00 | 0.00 | 0.00 | 99 | 1016.5 |
| 20260902042031 | 20 | 310 | 0.0 | 1.6 | 0.00 | 0.00 | 0.00 | 99 | 1016.2 |
| 20260902041525 | 20 | 316 | 0.0 | 1.6 | 0.00 | 0.00 | 0.00 | 99 | 1016.1 |
| 20260902041020 | 20 | 37 | 0.0 | 0.0 | 0.00 | 0.00 | 0.00 | 99 | 1016.3 |
| 20260902040521 | 20 | 15 | 0.0 | 1.6 | 0.00 | 0.00 | 0.00 | 99 | 1016.2 |
| 20260902040020 | 20 | 308 | 1.6 | 3.2 | 0.00 | 0.00 | 0.00 | 99 | 1016.2 |
| 20260902035514 | 21 | 72 | 0.0 | 0.0 | 0.00 | 2.59 | 2.59 | 99 | 1016.2 |
| 20260902035015 | 21 | 217 | 0.0 | 0.0 | 0.00 | 2.59 | 2.59 | 99 | 1016.1 |
| 20260902034509 | 21 | 147 | 0.0 | 1.6 | 0.00 | 2.59 | 2.59 | 99 | 1016.2 |
| 20260902034008 | 21 | 265 | 1.6 | 3.2 | 0.00 | 2.59 | 2.59 | 99 | 1016.2 |
| 20260902033507 | 21 | 307 | 0.0 | 1.6 | 0.00 | 2.59 | 2.59 | 99 | 1015.9 |
| 20260902033008 | 21 | 117 | 0.0 | 0.0 | 0.00 | 2.59 | 2.59 | 99 | 1015.8 |
| 20260902032501 | 21 | 246 | 0.0 | 3.2 | 0.00 | 2.59 | 2.59 | 99 | 1016.0 |
| 20260902031956 | 21 | 294 | 3.2 | 3.2 | 0.00 | 2.59 | 2.59 | 99 | 1016.1 |
| 20260902031446 | 21 | 89 | 0.0 | 0.0 | 0.00 | 2.59 | 2.59 | 99 | 1016.0 |
| 20260902030943 | 21 | 31 | 0.0 | 1.6 | 0.00 | 2.59 | 2.59 | 99 | 1015.9 |
| 20260902030442 | 21 | 314 | 3.2 | 3.2 | 0.00 | 2.59 | 2.59 | 99 | 1015.7 |
| 20260902025940 | 21 | 6 | 3.2 | 3.2 | 0.00 | 2.59 | 2.59 | 99 | 1015.8 |
| 20260902025436 | 21 | 19 | 0.0 | 1.6 | 0.00 | 2.59 | 2.59 | 99 | 1015.8 |
| 20260902024931 | 21 | 22 | 1.6 | 3.2 | 0.00 | 2.59 | 2.59 | 99 | 1015.8 |
| 20260902024427 | 21 | 53 | 0.0 | 3.2 | 0.00 | 2.59 | 2.59 | 99 | 1015.7 |
| 20260902023922 | 21 | 324 | 0.0 | 1.6 | 0.00 | 2.59 | 2.59 | 99 | 1015.5 |
| 20260902023418 | 21 | 336 | 0.0 | 0.0 | 0.00 | 2.59 | 2.59 | 99 | 1015.8 |
| 20260902022917 | 21 | 341 | 0.0 | 1.6 | 0.00 | 2.59 | 2.59 | 99 | 1015.7 |
| 20260902022412 | 21 | 318 | 1.6 | 1.6 | 0.00 | 2.59 | 2.59 | 99 | 1015.7 |
| 20260902021908 | 21 | 89 | 1.6 | 3.2 | 0.00 | 2.59 | 2.59 | 99 | 1015.9 |
| 20260902021407 | 21 | 315 | 0.0 | 1.6 | 0.00 | 2.59 | 2.59 | 99 | 1015.8 |
| 20260902020903 | 21 | 259 | 1.6 | 1.6 | 0.00 | 2.59 | 2.59 | 99 | 1015.9 |
| 20260902020359 | 21 | 44 | 0.0 | 0.0 | 0.00 | 2.59 | 2.59 | 99 | 1015.7 |
| 20260902015855 | 21 | 44 | 0.0 | 0.0 | 0.00 | 2.59 | 2.59 | 99 | 1015.7 |
| 20260902015349 | 21 | 44 | 0.0 | 1.6 | 0.00 | 2.59 | 2.59 | 99 | 1015.4 |
| 20260902014846 | 21 | 92 | 3.2 | 3.2 | 0.00 | 2.59 | 2.59 | 99 | 1015.8 |
| 20260902014342 | 21 | 19 | 1.6 | 3.2 | 0.00 | 2.59 | 2.59 | 99 | 1015.6 |
| 20260902013841 | 21 | 15 | 1.6 | 3.2 | 0.00 | 2.59 | 2.59 | 99 | 1015.6 |
| 20260902013336 | 21 | 39 | 0.0 | 1.6 | 0.00 | 2.59 | 2.59 | 99 | 1015.4 |
| 20260902012832 | 21 | 230 | 0.0 | 0.0 | 0.00 | 2.59 | 2.59 | 99 | 1015.4 |
| 20260902012328 | 21 | 269 | 0.0 | 3.2 | 0.00 | 2.59 | 2.59 | 99 | 1015.7 |
| 20260902011823 | 21 | 297 | 0.0 | 0.0 | 0.00 | 2.59 | 2.59 | 99 | 1015.5 |
| 20260902011318 | 21 | 50 | 0.0 | 0.0 | 0.00 | 2.59 | 2.59 | 99 | 1015.3 |
| 20260902010817 | 21 | 60 | 0.0 | 0.0 | 0.00 | 2.59 | 2.59 | 99 | 1015.4 |
| 20260902010312 | 21 | 50 | 0.0 | 0.0 | 0.00 | 2.59 | 2.59 | 99 | 1015.3 |
| 20260902005811 | 21 | 50 | 0.0 | 0.0 | 0.00 | 2.59 | 2.59 | 99 | 1015.2 |
| 20260902005306 | 21 | 62 | 0.0 | 1.6 | 0.00 | 2.59 | 2.59 | 99 | 1015.1 |
| 20260902004801 | 22 | 256 | 0.0 | 1.6 | 0.00 | 2.59 | 2.59 | 99 | 1015.0 |
| 20260902004256 | 21 | 293 | 1.6 | 3.2 | 0.00 | 2.59 | 2.59 | 99 | 1014.7 |
| 20260902003750 | 22 | 37 | 0.0 | 1.6 | 0.00 | 2.59 | 2.59 | 99 | 1014.9 |
| 20260902003246 | 22 | 62 | 0.0 | 1.6 | 0.00 | 2.59 | 2.59 | 99 | 1014.6 |
| 20260902002742 | 22 | 304 | 0.0 | 0.0 | 0.00 | 2.59 | 2.59 | 99 | 1014.6 |
| 20260902002241 | 22 | 242 | 0.0 | 0.0 | 0.00 | 2.59 | 2.59 | 99 | 1014.4 |
| 20260902001737 | 22 | 17 | 0.0 | 0.0 | 0.00 | 2.59 | 2.59 | 99 | 1014.4 |
| 20260902001237 | 22 | 32 | 0.0 | 1.6 | 0.00 | 2.59 | 2.59 | 99 | 1014.3 |
| 20260902000731 | 22 | 50 | 0.0 | 0.0 | 0.00 | 2.59 | 2.59 | 99 | 1014.4 |
| 20260902000226 | 22 | 37 | 0.0 | 1.6 | 0.00 | 2.59 | 2.59 | 99 | 1014.3 |
| 20260901235721 | 22 | 12 | 1.6 | 1.6 | 0.00 | 2.59 | 2.59 | 99 | 1014.3 |
| 20260901235217 | 22 | 19 | 0.0 | 1.6 | 0.00 | 2.59 | 2.59 | 99 | 1014.2 |
| 20260901234715 | 22 | 309 | 0.0 | 0.0 | 0.00 | 2.59 | 2.59 | 99 | 1014.3 |
| 20260901234210 | 22 | 297 | 0.0 | 0.0 | 0.00 | 2.59 | 2.59 | 99 | 1014.4 |
| 20260901233710 | 22 | 343 | 0.0 | 0.0 | 0.00 | 2.59 | 2.59 | 99 | 1014.3 |
| 20260901233206 | 22 | 322 | 0.0 | 0.0 | 0.00 | 2.59 | 2.59 | 99 | 1014.4 |
| 20260901232701 | 22 | 304 | 0.0 | 0.0 | 0.00 | 2.59 | 2.59 | 99 | 1014.5 |
| 20260901232156 | 22 | 286 | 0.0 | 1.6 | 0.00 | 2.59 | 2.59 | 99 | 1014.4 |
| 20260901231653 | 22 | 303 | 3.2 | 3.2 | 0.00 | 2.59 | 2.59 | 99 | 1014.1 |
| 20260901231149 | 22 | 317 | 0.0 | 1.6 | 0.00 | 2.59 | 2.59 | 99 | 1014.2 |
| 20260901230644 | 23 | 318 | 1.6 | 1.6 | 0.00 | 2.59 | 2.59 | 99 | 1013.8 |
| 20260901230144 | 23 | 355 | 0.0 | 3.2 | 0.00 | 2.59 | 2.59 | 99 | 1014.1 |
| 20260901225639 | 23 | 308 | 0.0 | 3.2 | 0.00 | 2.59 | 2.59 | 99 | 1014.1 |
| 20260901225134 | 23 | 299 | 3.2 | 3.2 | 0.00 | 2.59 | 2.59 | 99 | 1014.0 |
| 20260901224630 | 23 | 297 | 3.2 | 4.8 | 0.00 | 2.59 | 2.59 | 99 | 1014.1 |
| 20260901224126 | 23 | 294 | 3.2 | 4.8 | 0.00 | 2.59 | 2.59 | 99 | 1014.1 |
| 20260901223620 | 23 | 275 | 1.6 | 3.2 | 0.00 | 2.59 | 2.59 | 98 | 1013.9 |
| 20260901223116 | 23 | 291 | 3.2 | 3.2 | 0.00 | 2.59 | 2.59 | 98 | 1013.6 |
| 20260901222612 | 24 | 290 | 1.6 | 3.2 | 0.00 | 2.59 | 2.59 | 98 | 1013.6 |
| 20260901222107 | 24 | 282 | 1.6 | 3.2 | 0.00 | 2.59 | 2.59 | 96 | 1013.9 |
| 20260901221603 | 25 | 323 | 3.2 | 4.8 | 0.00 | 2.59 | 2.59 | 95 | 1013.9 |
| 20260901221059 | 25 | 255 | 0.0 | 3.2 | 0.00 | 2.59 | 2.59 | 93 | 1013.8 |
| 20260901220559 | 25 | 309 | 0.0 | 4.8 | 0.00 | 2.59 | 2.59 | 93 | 1014.0 |
| 20260901220058 | 26 | 289 | 3.2 | 6.4 | 0.00 | 2.59 | 2.59 | 91 | 1014.0 |
| 20260901215556 | 27 | 287 | 1.6 | 3.2 | 0.00 | 2.59 | 2.59 | 89 | 1013.9 |
| 20260901215056 | 26 | 325 | 0.0 | 3.2 | 0.00 | 2.59 | 2.59 | 90 | 1013.9 |
| 20260901214555 | 26 | 293 | 1.6 | 3.2 | 0.00 | 2.59 | 2.59 | 92 | 1014.1 |
| 20260901214049 | 26 | 305 | 1.6 | 3.2 | 0.00 | 2.59 | 2.59 | 93 | 1013.8 |
| 20260901213549 | 26 | 324 | 1.6 | 6.4 | 0.00 | 2.59 | 2.59 | 91 | 1013.9 |
| 20260901213043 | 27 | 293 | 0.0 | 3.2 | 0.00 | 2.59 | 2.59 | 87 | 1013.8 |
| 20260901212538 | 27 | 306 | 3.2 | 3.2 | 0.00 | 2.59 | 2.59 | 90 | 1013.8 |
| 20260901212034 | 27 | 2 | 0.0 | 3.2 | 0.00 | 2.59 | 2.59 | 87 | 1013.5 |
| 20260901211529 | 27 | 359 | 3.2 | 3.2 | 0.00 | 2.59 | 2.59 | 88 | 1013.4 |
| 20260901211026 | 26 | 9 | 1.6 | 4.8 | 0.00 | 2.59 | 2.59 | 91 | 1013.8 |
| 20260901210520 | 26 | 329 | 0.0 | 3.2 | 0.00 | 2.59 | 2.59 | 92 | 1013.7 |
| 20260901210017 | 27 | 354 | 1.6 | 1.6 | 0.00 | 2.59 | 2.59 | 89 | 1013.6 |
| 20260901205511 | 27 | 334 | 1.6 | 3.2 | 0.00 | 2.59 | 2.59 | 90 | 1013.4 |
| 20260901205006 | 26 | 60 | 1.6 | 3.2 | 0.00 | 2.59 | 2.59 | 91 | 1013.6 |
| 20260901204503 | 26 | 22 | 0.0 | 1.6 | 0.00 | 2.59 | 2.59 | 93 | 1013.6 |
| 20260901203957 | 26 | 19 | 0.0 | 1.6 | 0.00 | 2.59 | 2.59 | 94 | 1013.6 |
| 20260901203452 | 26 | 333 | 1.6 | 3.2 | 0.00 | 2.59 | 2.59 | 96 | 1014.0 |
| 20260901202947 | 26 | 285 | 1.6 | 3.2 | 0.00 | 2.59 | 2.59 | 95 | 1013.7 |
| 20260901202447 | 26 | 304 | 1.6 | 1.6 | 0.00 | 2.59 | 2.59 | 95 | 1013.8 |
| 20260901201937 | 26 | 309 | 0.0 | 0.0 | 0.00 | 2.59 | 2.59 | 96 | 1013.8 |
| 20260901201432 | 26 | 333 | 0.0 | 1.6 | 0.00 | 2.59 | 2.59 | 96 | 1013.8 |
| 20260901200931 | 26 | 1 | 1.6 | 3.2 | 0.00 | 2.59 | 2.59 | 95 | 1013.7 |
| 20260901200427 | 25 | 352 | 0.0 | 1.6 | 0.00 | 2.59 | 2.59 | 94 | 1014.0 |
| 20260901195926 | 25 | 357 | 1.6 | 3.2 | 0.00 | 2.59 | 2.59 | 96 | 1013.9 |
| 20260901195424 | 26 | 352 | 0.0 | 1.6 | 0.00 | 2.59 | 2.59 | 95 | 1013.9 |
| 20260901194919 | 26 | 37 | 0.0 | 3.2 | 0.00 | 2.59 | 2.59 | 94 | 1013.8 |
| 20260901194414 | 26 | 67 | 1.6 | 3.2 | 0.00 | 2.59 | 2.59 | 92 | 1013.7 |
| 20260901193910 | 26 | 25 | 0.0 | 1.6 | 0.00 | 2.59 | 2.59 | 91 | 1014.0 |
| 20260901193409 | 26 | 55 | 0.0 | 3.2 | 0.00 | 2.59 | 2.59 | 91 | 1013.9 |
| 20260901192904 | 26 | 19 | 0.0 | 3.2 | 0.00 | 2.59 | 2.59 | 90 | 1014.0 |
| 20260901192400 | 26 | 345 | 0.0 | 3.2 | 0.00 | 2.59 | 2.59 | 89 | 1013.9 |
| 20260901191856 | 26 | 322 | 3.2 | 4.8 | 0.00 | 2.59 | 2.59 | 94 | 1014.1 |
| 20260901191351 | 26 | 154 | 4.8 | 4.8 | 0.00 | 2.59 | 2.59 | 88 | 1013.7 |
| 20260901190847 | 26 | 351 | 1.6 | 3.2 | 0.00 | 2.59 | 2.59 | 87 | 1013.7 |
| 20260901190346 | 27 | 314 | 3.2 | 4.8 | 0.00 | 2.59 | 2.59 | 88 | 1013.9 |
| 20260901185845 | 27 | 61 | 0.0 | 3.2 | 0.00 | 2.59 | 2.59 | 88 | 1013.9 |
| 20260901185344 | 27 | 304 | 4.8 | 4.8 | 0.00 | 2.59 | 2.59 | 89 | 1014.0 |
| 20260901184839 | 27 | 357 | 3.2 | 3.2 | 0.00 | 2.59 | 2.59 | 87 | 1013.9 |
| 20260901184335 | 26 | 232 | 0.0 | 6.4 | 0.00 | 2.59 | 2.59 | 89 | 1013.9 |
| 20260901183830 | 25 | 352 | 3.2 | 3.2 | 0.00 | 2.59 | 2.59 | 93 | 1013.9 |
| 20260901183329 | 25 | 50 | 0.0 | 1.6 | 0.00 | 2.59 | 2.59 | 94 | 1013.9 |
| 20260901182827 | 25 | 7 | 1.6 | 9.7 | 0.00 | 2.59 | 2.59 | 93 | 1014.0 |
| 20260901182326 | 25 | 301 | 3.2 | 4.8 | 0.00 | 2.59 | 2.59 | 93 | 1013.7 |
| 20260901181821 | 25 | 333 | 0.0 | 0.0 | 0.00 | 2.59 | 2.59 | 94 | 1013.5 |
| 20260901181321 | 25 | 261 | 3.2 | 6.4 | 0.00 | 2.59 | 2.59 | 91 | 1013.5 |
| 20260901180814 | 25 | 331 | 1.6 | 3.2 | 0.00 | 2.59 | 2.59 | 94 | 1013.7 |
| 20260901180314 | 25 | 338 | 1.6 | 3.2 | 0.00 | 2.59 | 2.59 | 93 | 1013.6 |
| 20260901175812 | 25 | 258 | 1.6 | 6.4 | 0.00 | 2.59 | 2.59 | 91 | 1013.8 |
| 20260901175308 | 25 | 309 | 0.0 | 1.6 | 0.00 | 2.59 | 2.59 | 98 | 1013.7 |
| 20260901174802 | 24 | 300 | 1.6 | 3.2 | 0.00 | 2.59 | 2.59 | 98 | 1013.6 |
| 20260901174258 | 24 | 266 | 3.2 | 6.4 | 0.00 | 2.59 | 2.59 | 98 | 1013.5 |
| 20260901173754 | 24 | 352 | 0.0 | 1.6 | 0.00 | 2.59 | 2.59 | 99 | 1013.6 |
| 20260901173248 | 23 | 329 | 0.0 | 3.2 | 0.00 | 2.59 | 2.59 | 99 | 1013.5 |
| 20260901172745 | 22 | 163 | 3.2 | 3.2 | 0.00 | 2.59 | 2.59 | 99 | 1013.8 |
| 20260901172243 | 22 | 276 | 3.2 | 4.8 | 0.00 | 2.59 | 2.59 | 99 | 1013.6 |
| 20260901171742 | 22 | 242 | 0.0 | 1.6 | 0.00 | 2.59 | 2.59 | 99 | 1013.7 |
| 20260901171241 | 22 | 304 | 0.0 | 0.0 | 0.00 | 2.59 | 2.59 | 99 | 1013.6 |
| 20260901170740 | 21 | 137 | 0.0 | 1.6 | 0.00 | 2.59 | 2.59 | 99 | 1013.7 |
| 20260901170235 | 22 | 62 | 0.0 | 0.0 | 0.00 | 2.59 | 2.59 | 99 | 1013.9 |
| 20260901165734 | 21 | 283 | 0.0 | 0.0 | 0.00 | 2.59 | 2.59 | 99 | 1013.7 |
| 20260901165234 | 21 | 132 | 1.6 | 3.2 | 0.00 | 2.59 | 2.59 | 99 | 1013.7 |
| 20260901164731 | 21 | 144 | 1.6 | 1.6 | 0.00 | 2.59 | 2.59 | 99 | 1014.0 |
| 20260901164226 | 21 | 229 | 1.6 | 3.2 | 0.00 | 2.59 | 2.59 | 99 | 1013.8 |
| 20260901163721 | 21 | 220 | 0.0 | 3.2 | 0.00 | 2.59 | 2.59 | 99 | 1013.7 |
| 20260901163220 | 21 | 295 | 1.6 | 3.2 | 0.00 | 2.59 | 2.59 | 99 | 1014.0 |
| 20260901162716 | 21 | 251 | 3.2 | 4.8 | 0.00 | 2.59 | 2.59 | 99 | 1014.1 |
| 20260901162215 | 21 | 195 | 1.6 | 3.2 | 0.00 | 2.59 | 2.59 | 99 | 1014.1 |
| 20260901161714 | 21 | 267 | 3.2 | 3.2 | 0.00 | 2.59 | 2.59 | 99 | 1013.9 |
| 20260901161209 | 21 | 309 | 0.0 | 1.6 | 0.00 | 2.59 | 2.59 | 99 | 1014.1 |
| 20260901160705 | 21 | 199 | 0.0 | 0.0 | 0.00 | 2.59 | 2.59 | 99 | 1014.0 |
| 20260901160200 | 21 | 237 | 3.2 | 3.2 | 0.00 | 2.59 | 2.59 | 99 | 1014.1 |
| 20260901155659 | 21 | 233 | 0.0 | 3.2 | 0.00 | 2.59 | 2.59 | 99 | 1014.1 |
| 20260901155154 | 21 | 217 | 0.0 | 0.0 | 0.00 | 2.59 | 2.59 | 99 | 1014.1 |
| 20260901154650 | 21 | 297 | 0.0 | 0.0 | 0.00 | 2.59 | 2.59 | 99 | 1014.3 |
| 20260901154145 | 21 | 304 | 0.0 | 0.0 | 0.00 | 2.59 | 2.59 | 99 | 1014.0 |
| 20260901153640 | 21 | 212 | 0.0 | 1.6 | 0.00 | 2.59 | 2.59 | 99 | 1014.2 |
| 20260901153139 | 21 | 269 | 0.0 | 1.6 | 0.00 | 2.59 | 2.59 | 99 | 1014.2 |
| 20260901152634 | 21 | 22 | 0.0 | 1.6 | 0.00 | 2.59 | 2.59 | 99 | 1014.3 |
| 20260901152132 | 20 | 286 | 1.6 | 3.2 | 0.00 | 2.59 | 2.59 | 99 | 1014.2 |
| 20260901151629 | 20 | 275 | 3.2 | 3.2 | 0.00 | 2.59 | 2.59 | 99 | 1014.3 |
| 20260901151128 | 20 | 269 | 0.0 | 3.2 | 0.00 | 2.59 | 2.59 | 99 | 1014.2 |
| 20260901150627 | 20 | 229 | 0.0 | 3.2 | 0.00 | 2.59 | 2.59 | 99 | 1014.1 |
| 20260901150120 | 20 | 113 | 0.0 | 0.0 | 0.00 | 2.59 | 2.59 | 99 | 1014.2 |
| 20260901145619 | 20 | 76 | 0.0 | 1.6 | 0.00 | 2.59 | 2.59 | 99 | 1014.2 |
| 20260901145118 | 20 | 230 | 0.0 | 3.2 | 0.00 | 2.59 | 2.59 | 99 | 1014.1 |
| 20260901144614 | 20 | 281 | 0.0 | 3.2 | 0.00 | 2.59 | 2.59 | 99 | 1014.2 |
| 20260901144109 | 20 | 215 | 3.2 | 3.2 | 0.13 | 2.59 | 2.59 | 99 | 1014.0 |
| 20260901143604 | 20 | 193 | 0.0 | 1.6 | 0.18 | 2.59 | 2.59 | 99 | 1014.3 |
| 20260901143101 | 20 | 265 | 1.6 | 3.2 | 0.05 | 2.57 | 2.57 | 99 | 1014.1 |
| 20260901142556 | 20 | 236 | 0.0 | 1.6 | 0.00 | 2.57 | 2.57 | 99 | 1014.0 |
| 20260901142055 | 20 | 237 | 1.6 | 3.2 | 0.00 | 2.57 | 2.57 | 99 | 1014.1 |
| 20260901141550 | 20 | 232 | 0.0 | 3.2 | 0.00 | 2.57 | 2.57 | 99 | 1014.1 |
| 20260901141045 | 20 | 352 | 0.0 | 3.2 | 0.05 | 2.57 | 2.57 | 99 | 1014.0 |
| 20260901140543 | 20 | 256 | 0.0 | 1.6 | 0.18 | 2.57 | 2.57 | 99 | 1014.2 |
| 20260901140038 | 20 | 249 | 0.0 | 3.2 | 1.93 | 2.54 | 2.54 | 99 | 1014.2 |
| 20260901135537 | 20 | 235 | 3.2 | 6.4 | 2.34 | 2.49 | 2.49 | 99 | 1014.4 |
| 20260901135033 | 20 | 274 | 1.6 | 6.4 | 0.89 | 2.21 | 2.21 | 99 | 1014.4 |
| 20260901134529 | 20 | 269 | 3.2 | 6.4 | 0.36 | 2.08 | 2.08 | 99 | 1014.2 |
| 20260901134028 | 20 | 263 | 3.2 | 4.8 | 0.13 | 2.06 | 2.06 | 99 | 1014.1 |
| 20260901133527 | 20 | 250 | 4.8 | 6.4 | 0.05 | 2.03 | 2.03 | 99 | 1014.1 |
| 20260901133026 | 20 | 219 | 3.2 | 4.8 | 0.05 | 2.03 | 2.03 | 99 | 1014.4 |
| 20260901132521 | 20 | 224 | 0.0 | 1.6 | 0.13 | 2.03 | 2.03 | 99 | 1014.7 |
| 20260901132020 | 20 | 82 | 0.0 | 1.6 | 0.18 | 2.03 | 2.03 | 99 | 1014.5 |
| 20260901131514 | 20 | 50 | 0.0 | 0.0 | 0.00 | 1.98 | 1.98 | 99 | 1014.9 |
| 20260901131005 | 20 | 141 | 0.0 | 0.0 | 1.02 | 1.98 | 1.98 | 99 | 1014.6 |
| 20260901130505 | 20 | 124 | 0.0 | 1.6 | 1.50 | 1.98 | 1.98 | 99 | 1014.5 |
| 20260901130003 | 20 | 227 | 1.6 | 3.2 | 0.61 | 1.80 | 1.80 | 99 | 1014.7 |
| 20260901125457 | 19 | 282 | 3.2 | 9.7 | 0.05 | 1.73 | 1.73 | 99 | 1014.5 |
| 20260901124957 | 19 | 245 | 3.2 | 6.4 | 0.97 | 1.70 | 1.70 | 99 | 1015.1 |
| 20260901124452 | 19 | 245 | 3.2 | 6.4 | 0.97 | 1.70 | 1.70 | 99 | 1015.1 |
| 20260901123947 | 19 | 248 | 3.2 | 4.8 | 0.30 | 1.55 | 1.55 | 99 | 1014.9 |
| 20260901123442 | 18 | 254 | 4.8 | 4.8 | 0.61 | 1.55 | 1.55 | 99 | 1014.6 |
| 20260901122939 | 18 | 254 | 4.8 | 8.0 | 0.23 | 1.47 | 1.47 | 99 | 1015.0 |
| 20260901122434 | 18 | 118 | 3.2 | 4.8 | 1.50 | 1.45 | 1.45 | 99 | 1015.2 |
| 20260901121934 | 18 | 276 | 1.6 | 3.2 | 2.46 | 1.45 | 1.45 | 99 | 1015.7 |
| 20260901121429 | 18 | 131 | 3.2 | 3.2 | 2.21 | 1.19 | 1.19 | 99 | 1015.5 |
| 20260901120924 | 18 | 334 | 1.6 | 3.2 | 2.16 | 0.99 | 0.99 | 99 | 1015.6 |
| 20260901120423 | 18 | 100 | 3.2 | 4.8 | 1.80 | 0.89 | 0.89 | 99 | 1015.1 |
| 20260901115919 | 18 | 155 | 0.0 | 3.2 | 1.27 | 0.64 | 0.64 | 99 | 1015.0 |
| 20260901115419 | 18 | 80 | 1.6 | 3.2 | 1.45 | 0.56 | 0.56 | 99 | 1014.9 |
| 20260901114917 | 18 | 248 | 4.8 | 6.4 | 0.30 | 0.38 | 0.38 | 99 | 1015.1 |
| 20260901114412 | 18 | 298 | 4.8 | 6.4 | 0.23 | 0.33 | 0.33 | 99 | 1014.6 |
| 20260901113910 | 18 | 72 | 0.0 | 3.2 | 0.30 | 0.30 | 0.30 | 99 | 1014.9 |
| 20260901113409 | 18 | 47 | 0.0 | 3.2 | 0.00 | 0.25 | 0.25 | 99 | 1015.0 |
| 20260901112905 | 18 | 33 | 3.2 | 3.2 | 0.18 | 0.25 | 0.25 | 99 | 1015.1 |
| 20260901112359 | 18 | 178 | 0.0 | 1.6 | 0.43 | 0.25 | 0.25 | 99 | 1014.6 |
| 20260901111854 | 18 | 50 | 0.0 | 0.0 | 0.18 | 0.23 | 0.23 | 99 | 1014.5 |
| 20260901111352 | 18 | 10 | 3.2 | 3.2 | 0.00 | 0.18 | 0.18 | 99 | 1014.7 |
| 20260901110851 | 18 | 30 | 0.0 | 1.6 | 0.00 | 0.18 | 0.18 | 99 | 1014.3 |
| 20260901110347 | 18 | 32 | 1.6 | 1.6 | 0.00 | 0.18 | 0.18 | 99 | 1014.2 |
| 20260901105843 | 18 | 40 | 1.6 | 3.2 | 0.00 | 0.18 | 0.18 | 99 | 1014.4 |
| 20260901105338 | 18 | 24 | 1.6 | 3.2 | 0.00 | 0.18 | 0.18 | 99 | 1014.3 |
| 20260901104835 | 18 | 89 | 0.0 | 3.2 | 0.00 | 0.18 | 0.18 | 99 | 1014.2 |
| 20260901104329 | 18 | 63 | 1.6 | 3.2 | 0.05 | 0.18 | 0.18 | 99 | 1014.4 |
| 20260901103825 | 18 | 70 | 3.2 | 3.2 | 0.48 | 0.18 | 0.18 | 99 | 1014.3 |
| 20260901103319 | 18 | 58 | 1.6 | 3.2 | 0.48 | 0.18 | 0.18 | 99 | 1014.3 |
| 20260901102814 | 18 | 106 | 1.6 | 3.2 | 0.13 | 0.10 | 0.10 | 99 | 1014.3 |
| 20260901102313 | 18 | 44 | 0.0 | 3.2 | 0.05 | 0.10 | 0.10 | 99 | 1014.4 |
| 20260901101810 | 18 | 63 | 0.0 | 3.2 | 0.00 | 0.10 | 0.10 | 99 | 1014.2 |
| 20260901101309 | 18 | 105 | 0.0 | 1.6 | 0.00 | 0.10 | 0.10 | 99 | 1014.0 |
| 20260901100808 | 18 | 50 | 0.0 | 0.0 | 0.00 | 0.10 | 0.10 | 99 | 1014.1 |
| 20260901100303 | 18 | 130 | 1.6 | 3.2 | 0.00 | 0.10 | 0.10 | 99 | 1014.1 |
| 20260901095802 | 18 | 18 | 1.6 | 3.2 | 0.00 | 0.10 | 0.10 | 99 | 1014.3 |
| 20260901095300 | 18 | 89 | 1.6 | 3.2 | 0.00 | 0.10 | 0.10 | 99 | 1014.3 |
| 20260901094754 | 18 | 46 | 1.6 | 1.6 | 0.00 | 0.10 | 0.10 | 99 | 1014.5 |
| 20260901094249 | 18 | 259 | 3.2 | 3.2 | 0.00 | 0.10 | 0.10 | 99 | 1014.3 |
| 20260901093744 | 18 | 50 | 0.0 | 3.2 | 0.00 | 0.10 | 0.10 | 99 | 1014.4 |
| 20260901093243 | 18 | 27 | 1.6 | 3.2 | 0.00 | 0.10 | 0.10 | 99 | 1014.5 |
| 20260901092739 | 18 | 89 | 0.0 | 1.6 | 0.00 | 0.10 | 0.10 | 99 | 1014.3 |
| 20260901092235 | 18 | 316 | 1.6 | 3.2 | 0.00 | 0.10 | 0.10 | 99 | 1014.4 |
| 20260901091730 | 18 | 269 | 0.0 | 1.6 | 0.00 | 0.10 | 0.10 | 99 | 1014.4 |
| 20260901091226 | 18 | 229 | 1.6 | 3.2 | 0.00 | 0.10 | 0.10 | 99 | 1014.5 |
| 20260901090720 | 18 | 254 | 3.2 | 3.2 | 0.00 | 0.10 | 0.10 | 99 | 1014.9 |
| 20260901090210 | 18 | 312 | 1.6 | 3.2 | 0.00 | 0.10 | 0.10 | 99 | 1014.4 |
| 20260901085706 | 18 | 315 | 0.0 | 0.0 | 0.00 | 0.10 | 0.10 | 99 | 1014.6 |
| 20260901085201 | 18 | 50 | 0.0 | 1.6 | 0.00 | 0.10 | 0.10 | 99 | 1015.0 |
| 20260901084658 | 18 | 306 | 1.6 | 3.2 | 0.00 | 0.10 | 0.10 | 99 | 1015.2 |
| 20260901084153 | 18 | 37 | 0.0 | 0.0 | 0.00 | 0.10 | 0.10 | 99 | 1015.2 |
| 20260901083652 | 18 | 55 | 0.0 | 1.6 | 0.00 | 0.10 | 0.10 | 99 | 1015.1 |
| 20260901083152 | 18 | 322 | 0.0 | 0.0 | 0.00 | 0.10 | 0.10 | 99 | 1015.3 |
| 20260901082645 | 18 | 66 | 0.0 | 0.0 | 0.05 | 0.10 | 0.10 | 99 | 1015.2 |
| 20260901082141 | 18 | 38 | 1.6 | 3.2 | 0.05 | 0.10 | 0.10 | 99 | 1015.3 |
| 20260901081636 | 18 | 269 | 0.0 | 1.6 | 0.13 | 0.08 | 0.08 | 99 | 1015.3 |
| 20260901081131 | 18 | 322 | 0.0 | 1.6 | 0.13 | 0.08 | 0.08 | 99 | 1015.4 |
| 20260901080631 | 18 | 274 | 1.6 | 3.2 | 0.13 | 0.05 | 0.05 | 99 | 1015.4 |
| 20260901080129 | 18 | 32 | 1.6 | 1.6 | 0.05 | 0.05 | 0.05 | 99 | 1015.4 |
| 20260901075625 | 18 | 102 | 1.6 | 3.2 | 0.05 | 0.05 | 0.05 | 99 | 1015.5 |
| 20260901075125 | 18 | 57 | 1.6 | 3.2 | 0.13 | 0.05 | 0.05 | 99 | 1015.5 |
| 20260901074624 | 18 | 267 | 3.2 | 4.8 | 0.18 | 0.03 | 0.03 | 99 | 1015.5 |
| 20260901074119 | 18 | 310 | 1.6 | 4.8 | 0.05 | 0.00 | 0.00 | 99 | 1015.5 |
| 20260901073617 | 18 | 324 | 1.6 | 1.6 | 0.00 | 0.00 | 0.00 | 99 | 1015.3 |
| 20260901073117 | 18 | 19 | 0.0 | 0.0 | 0.00 | 0.00 | 0.00 | 99 | 1015.2 |
| 20260901072612 | 18 | 105 | 1.6 | 1.6 | 0.00 | 0.00 | 0.00 | 99 | 1015.4 |
| 20260901072108 | 18 | 89 | 0.0 | 0.0 | 0.00 | 0.00 | 0.00 | 99 | 1015.4 |
| 20260901071607 | 18 | 180 | 0.0 | 0.0 | 0.00 | 0.00 | 0.00 | 99 | 1015.4 |
| 20260901071106 | 18 | 52 | 0.0 | 1.6 | 0.00 | 0.00 | 0.00 | 99 | 1015.6 |
| 20260901070601 | 18 | 92 | 1.6 | 3.2 | 0.00 | 0.00 | 0.00 | 99 | 1015.5 |
| 20260901070056 | 18 | 95 | 1.6 | 3.2 | 0.00 | 0.00 | 0.00 | 99 | 1015.4 |
| 20260901065550 | 18 | 110 | 0.0 | 1.6 | 0.00 | 0.00 | 0.00 | 99 | 1015.5 |
| 20260901065044 | 18 | 235 | 0.0 | 1.6 | 0.00 | 0.00 | 0.00 | 99 | 1015.6 |
| 20260901064542 | 18 | 303 | 3.2 | 3.2 | 0.00 | 0.00 | 0.00 | 99 | 1015.7 |
| 20260901064038 | 18 | 44 | 0.0 | 1.6 | 0.00 | 0.00 | 0.00 | 99 | 1015.4 |
| 20260901063535 | 18 | 36 | 1.6 | 1.6 | 0.00 | 0.00 | 0.00 | 99 | 1015.6 |
| 20260901063030 | 18 | 322 | 0.0 | 0.0 | 0.00 | 0.00 | 0.00 | 99 | 1015.5 |
| 20260901062526 | 18 | 71 | 0.0 | 1.6 | 0.00 | 0.00 | 0.00 | 99 | 1015.7 |
| 20260901062022 | 18 | 129 | 0.0 | 0.0 | 0.00 | 0.00 | 0.00 | 99 | 1015.6 |
| 20260901061519 | 18 | 322 | 0.0 | 0.0 | 0.00 | 0.00 | 0.00 | 99 | 1016.0 |
| 20260901061018 | 18 | 322 | 0.0 | 0.0 | 0.00 | 0.00 | 0.00 | 99 | 1015.9 |
| 20260901060513 | 18 | 326 | 0.0 | 0.0 | 0.00 | 0.00 | 0.00 | 99 | 1015.8 |
| 20260901060008 | 17 | 283 | 0.0 | 0.0 | 0.00 | 0.00 | 0.00 | 99 | 1016.0 |
| 20260901055503 | 18 | 283 | 0.0 | 0.0 | 0.00 | 0.00 | 0.00 | 99 | 1015.8 |
| 20260901055000 | 17 | 283 | 0.0 | 0.0 | 0.00 | 0.00 | 0.00 | 99 | 1016.0 |